Location: Nag� el Ma?a??a
(24.0667°N, 32.8833°E)
Time: 17:05:18
(UTC+00:00)

Palapa B4 Rocket - Pass Details

Date: 25 September 2021
Orbit: 502 x 2695 km, 19.7° (Epoch: 16 October)

Event Time Altitude Azimuth Distance (km) Brightness Sun altitude
Exits shadow 03:12:12 - 261° (W) 3,435 6.2 -6.8°
Reaches altitude 10° 03:13:07 10° 259° (W) 3,102 6.0 -6.6°
Maximum altitude 03:20:08 56° 183° (S) 962 4.0 -5.0°
Drops below altitude 10° 03:24:39 10° 105° (ESE) 2,021 7.3 -3.9°
Sets 03:26:38 0° 100° (E) 2,789 8.7 -3.5°
